Lexington Weather

Lexington, Massachusetts, USA

72°F
8/7/2020 11:15am 
  • Lexington Conditions: Clear
  • Temperature: 72.3°F / 22.4°CWarmer 2.5°F than last hour.
  • Dew Point: 63.1°FIncreased 0.9°Fsince last hour.
  • Relative Humidity: 73%Decreased 4.0% since last hour.
  • Wind: Calm, 10-min avg: Calm, gust: 2 mph
  • Barometer: 30.14 in Steady
  • Visibility: 10 miles
  • Rain Today: 0.00 in
  •   

Regional Weather Roundup
for Boston / Norton, MA

        
000
ASUS41 KBOX 031104
RWRBOX

REGIONAL WEATHER ROUNDUP
NATIONAL WEATHER SERVICE BOSTON/NORTON MA
700 AM EDT MON AUG 03 2020

NOTE:  "FAIR" INDICATES FEW OR NO CLOUDS BELOW 12,000 FEET WITH NO 
SIGNIFICANT WEATHER AND/OR OBSTRUCTIONS TO VISIBILITY.

MAZALL-031200-
EASTERN MASSACHUSETTS
  
CITY           SKY/WX    TMP DP  RH WIND       PRES   REMARKS
BOSTON         MOSUNNY   78  74  87 S9        29.90R                  
BEVERLY        SUNNY     79  74  84 SW9       29.88S                  
LAWRENCE       SUNNY     77  75  93 S8        29.89S                  
BEDFORD        SUNNY     79  74  84 SW8       29.88S                  
BLUE HILL      NOT AVBL                                               
NORWOOD        SUNNY     81  73  76 SW8       29.91R                  
MARSHFIELD     SUNNY     81  77  89 SW9       29.92R                  
PLYMOUTH       SUNNY     79  75  87 SW9       29.94R                  
TAUNTON        MOSUNNY   80  75  84 SW6       29.93R                  
NEW BEDFORD    MOSUNNY   77  77 100 SW10      29.94R                  
$$

MAZALL-031200-
CAPE COD AND THE ISLANDS
  
CITY           SKY/WX    TMP DP  RH WIND       PRES   REMARKS
FALMOUTH       PTSUNNY   79  75  89 SW14      29.96R FOG              
HYANNIS        CLOUDY    80  77  90 SW13      29.95R                  
CHATHAM        CLOUDY    77  74  90 SW8       29.97R                  
PROVINCETOWN   SUNNY     77  75  93 SW14G20   29.94R                  
NANTUCKET      CLOUDY    75  72  90 SW12      29.98R FOG              
MARTHAS VNYRD  CLOUDY    77  75  93 SW10      29.96S FOG              
$$
 
MAZALL-031200-
CENTRAL AND WESTERN MASSACHUSETTS
  
CITY           SKY/WX    TMP DP  RH WIND       PRES   REMARKS
WORCESTER      SUNNY     75  69  81 SW14      29.94S                  
FITCHBURG      SUNNY     78  70  76 S8        29.90R                  
ORANGE         SUNNY     75  71  87 S9        29.92R                  
SPRINGFIELD    SUNNY     76  69  77 SW9       29.91R                  
WESTFIELD      SUNNY     74  70  87 S9        29.92R                  
NORTH ADAMS    MOSUNNY   73  64  73 W9        29.93R                  
PITTSFIELD     MOSUNNY   71  66  84 W5        29.95R                  
$$
 
RIZALL-031200-
RHODE ISLAND
  
CITY           SKY/WX    TMP DP  RH WIND       PRES   REMARKS
PROVIDENCE     PTSUNNY   79  76  90 SW8       29.94R                  
NEWPORT        MOSUNNY   77  73  87 SW7       29.95R FOG              
BLOCK ISLAND   SUNNY     75  72  90 SW16      29.97R                  
SMITHFIELD     MOSUNNY   77  75  93 SW5       29.95R                  
WESTERLY       MOSUNNY   76  71  85 SW9       29.96R                  
$$
 
CTZALL-031200-
CONNECTICUT
  
CITY           SKY/WX    TMP DP  RH WIND       PRES   REMARKS
BRADLEY INTL   PTSUNNY   77  66  68 SW9       29.92R                  
HARTFORD       MOSUNNY   79  70  74 S9        29.93R                  
BRIDGEPORT     MOSUNNY   79  68  69 SW7       29.96R                  
DANBURY        SUNNY     74  63  68 SW8       29.98R                  
GROTON         MOSUNNY   77  73  87 SW9       29.95R                  
NEW HAVEN      MOSUNNY   80  72  76 VRB5      29.96R                  
CHESTER        NOT AVBL                                               
MERIDEN        SUNNY     77  68  73 S7        29.95R                  
WILLIMANTIC    SUNNY     76  72  87 CALM      29.94R                  
OXFORD         MOSUNNY   73  65  75 SW3       29.99R                  
$$

MEZ002-015-021-024-NHZ003-005-008-011-012-014-VTZ005-008-031200-
NORTHERN NEW ENGLAND
  
CITY           SKY/WX    TMP DP  RH WIND       PRES   REMARKS
PORTLAND ME    PTSUNNY   75  72  90 S8        29.85R                  
BANGOR ME      FOG       71  69  93 S12       29.83S VSB 1/2          
CONCORD NH     MOSUNNY   76  73  91 SE3       29.87R                  
MANCHESTER NH  PTSUNNY   79  74  84 S7        29.86R                  
NASHUA NH      SUNNY     78  77  96 VRB5      29.89R                  
PORTSMOUTH NH  MOSUNNY   78  73  86 S9        29.85R                  
JAFFREY NH     MOSUNNY   74  69  85 VRB7      29.92R                  
KEENE NH       SUNNY     73  71  93 SW6       29.90R                  
BURLINGTON VT  PTSUNNY   76  61  59 S9        29.78R                  
MT. WASHINGTON FOG       54  54 100 W49G60      N/A  VSB 1/16         
$$

NYZ052-076-031200-
EASTERN NEW YORK
  
CITY           SKY/WX    TMP DP  RH WIND       PRES   REMARKS
ALBANY         MOSUNNY   72  61  68 SW9       29.92R                  
NEW YORK CITY  PTSUNNY   82  60  47 W10       29.97R                  
$$
 
ANZALL-031200-
MARINE OBSERVATIONS
  
STATION/POSITION TIME  TEMP    WIND        PRES    VSBY  WAVE
                       AIR SEA DIR/SP/G                  HT/PER
                 (UTC) (F)     (DEG/KT/KT) (MB)    (MI)  (FT/S)
BOSTON BUOY      1050   72 70  180/ 10/ 12 1011.5R         2/ 5
BUZZARDS BAY     1000          230/ 22/ 24 1014.5R
NANTUCKET SOUND  1040      76  220/ 16/ 19 1013.7
MASS BAY-STELLWA NOT AVBL
ISLE OF SHOALS   1000   74     200/ 19/ 20 1010.7R
S OF BLOCK IS    1026      71                N/A           6/ 7
$$

......................KEY.........................
  SKY/WX - SKY CONDITION/PRESENT WEATHER
  TMP    - TEMPERATURE IN FAHRENHEIT
  DWPT   - DEWPOINT IN FAHRENHEIT
  RH     - RELATIVE HUMIDITY IN PERCENT
  WIND   - DIRECTION AND SPEED IN MPH
  PRES   - MEAN SEA LEVEL PRESSURE IN INCHES OF HG
  WCI    - WIND CHILL INDEX
  VSB    - VISIBILITY IN MILES
  HX     - HEAT INDEX
  TC     - TEMPERATURE IN CELSIUS
  VRB    - VARIABLE WIND DIRECTION
  N/A    - NOT AVAILABLE
  
      

Other recent Regional Weather Roundups

Fri Aug 7, 10:04am

Fri Aug 7, 9:04am

Fri Aug 7, 8:04am

Fri Aug 7, 7:04am

Fri Aug 7, 6:04am

Fri Aug 7, 5:04am

Fri Aug 7, 4:04am

Fri Aug 7, 3:04am

Fri Aug 7, 2:04am

Fri Aug 7, 1:05am

Fri Aug 7, 12:04am

Thu Aug 6, 11:04pm

Thu Aug 6, 10:04pm

Thu Aug 6, 9:04pm

Thu Aug 6, 8:04pm

Thu Aug 6, 7:04pm

Thu Aug 6, 6:04pm

Thu Aug 6, 5:04pm

Thu Aug 6, 4:05pm

Thu Aug 6, 3:04pm

Thu Aug 6, 2:05pm

Thu Aug 6, 1:04pm

Thu Aug 6, 12:04pm

Thu Aug 6, 11:04am

Thu Aug 6, 10:04am

Thu Aug 6, 9:04am

Thu Aug 6, 8:04am

Thu Aug 6, 7:04am

Thu Aug 6, 6:04am

Thu Aug 6, 5:04am

Thu Aug 6, 4:04am

Thu Aug 6, 3:04am

Thu Aug 6, 2:05am

Thu Aug 6, 1:04am

Thu Aug 6, 12:04am

Wed Aug 5, 11:04pm

Wed Aug 5, 10:04pm

Wed Aug 5, 9:04pm

Wed Aug 5, 8:05pm

Wed Aug 5, 7:04pm

Wed Aug 5, 6:04pm

Wed Aug 5, 5:04pm

Wed Aug 5, 4:05pm

Wed Aug 5, 3:04pm

Wed Aug 5, 2:04pm

Wed Aug 5, 1:04pm

Wed Aug 5, 12:04pm

Wed Aug 5, 11:04am

Wed Aug 5, 10:04am

Wed Aug 5, 9:04am

Wed Aug 5, 8:04am

Wed Aug 5, 7:04am

Wed Aug 5, 6:04am

Wed Aug 5, 5:04am

Wed Aug 5, 4:04am

Wed Aug 5, 3:04am

Wed Aug 5, 2:05am

Wed Aug 5, 1:04am

Wed Aug 5, 12:05am

Tue Aug 4, 11:05pm

Tue Aug 4, 10:05pm

Tue Aug 4, 9:04pm

Tue Aug 4, 8:04pm

Tue Aug 4, 7:05pm

Tue Aug 4, 6:05pm

Tue Aug 4, 5:05pm

Tue Aug 4, 4:05pm

Tue Aug 4, 3:04pm

Tue Aug 4, 2:05pm

Tue Aug 4, 1:04pm

Tue Aug 4, 12:05pm

Tue Aug 4, 11:04am

Tue Aug 4, 10:04am

Tue Aug 4, 9:04am

Tue Aug 4, 8:04am

Tue Aug 4, 7:04am

Tue Aug 4, 6:04am

Tue Aug 4, 5:04am

Tue Aug 4, 4:04am

Tue Aug 4, 3:04am

Tue Aug 4, 2:04am

Tue Aug 4, 1:04am

Tue Aug 4, 12:04am

Mon Aug 3, 11:04pm

Mon Aug 3, 10:04pm

Mon Aug 3, 9:04pm

Mon Aug 3, 8:05pm

Mon Aug 3, 7:04pm

Mon Aug 3, 6:04pm

Mon Aug 3, 5:04pm

Mon Aug 3, 4:05pm

Mon Aug 3, 3:04pm

Mon Aug 3, 2:04pm

Mon Aug 3, 1:04pm

Mon Aug 3, 12:05pm

Mon Aug 3, 11:04am

Mon Aug 3, 10:04am

Mon Aug 3, 9:05am

Mon Aug 3, 8:04am

Mon Aug 3, 6:04am

Mon Aug 3, 5:04am

Mon Aug 3, 4:04am

Mon Aug 3, 3:04am

Mon Aug 3, 2:04am

Mon Aug 3, 1:04am

Mon Aug 3, 12:05am

Sun Aug 2, 11:04pm

Sun Aug 2, 10:04pm

Sun Aug 2, 9:04pm

Sun Aug 2, 8:04pm

Sun Aug 2, 7:04pm

Sun Aug 2, 6:04pm

Sun Aug 2, 5:04pm

Sun Aug 2, 4:05pm

Sun Aug 2, 3:04pm

Sun Aug 2, 2:05pm

Sun Aug 2, 1:04pm

Sun Aug 2, 12:04pm

Sun Aug 2, 11:04am

Sun Aug 2, 10:04am

Sun Aug 2, 9:05am

Sun Aug 2, 8:05am

Sun Aug 2, 7:04am

Sun Aug 2, 6:04am

Sun Aug 2, 5:04am

Sun Aug 2, 4:05am

Sun Aug 2, 3:04am

Sun Aug 2, 2:04am

Sun Aug 2, 1:04am

Sun Aug 2, 12:05am

Sat Aug 1, 11:04pm

Sat Aug 1, 10:04pm

Sat Aug 1, 9:04pm

Sat Aug 1, 8:05pm

Sat Aug 1, 7:04pm

Sat Aug 1, 6:04pm

Sat Aug 1, 5:05pm

Sat Aug 1, 4:05pm

Sat Aug 1, 3:04pm

Sat Aug 1, 2:04pm

Sat Aug 1, 1:04pm

Sat Aug 1, 12:04pm

Sat Aug 1, 11:05am

Sat Aug 1, 10:05am

Sat Aug 1, 9:04am

Sat Aug 1, 8:04am

Sat Aug 1, 7:04am

Sat Aug 1, 6:04am

Sat Aug 1, 5:04am

Sat Aug 1, 4:05am

Sat Aug 1, 3:04am

Sat Aug 1, 2:04am

Sat Aug 1, 1:04am

Sat Aug 1, 12:05am

Fri Jul 31, 11:05pm

Fri Jul 31, 10:04pm

Fri Jul 31, 9:04pm

Fri Jul 31, 8:05pm

Fri Jul 31, 7:05pm

Fri Jul 31, 6:04pm

Fri Jul 31, 5:04pm

Fri Jul 31, 4:05pm

Fri Jul 31, 3:04pm

Fri Jul 31, 2:05pm

Fri Jul 31, 1:04pm

Fri Jul 31, 12:04pm

Fri Jul 31, 11:04am

Meta data:

ID: 297af215-f343-436f-806c-4290248b1b2f
Link: https://api.weather.gov/products/297af215-f343-436f-806c-4290248b1b2f